Location: Ferintosh
(52.7647°N, 112.9692°W)
Time: 14:52:08
(UTC+00:00)

Transit 2A - Pass Details

Date: 18 May 2024
Orbit: 592 x 959 km, 66.7° (Epoch: 23 June)

Event Time Altitude Azimuth Distance (km) Brightness Sun altitude
Rises 12:17:59 0° 308° (NW) 3,192 8.9 5.5°
Reaches altitude 10° 12:20:52 10° 325° (NW) 2,337 8.4 5.9°
Maximum altitude 12:24:55 21° 14° (NNE) 1,782 8.6 6.5°
Drops below altitude 10° 12:29:15 10° 62° (ENE) 2,520 11.8 7.1°
Sets 12:32:30 0° 78° (ENE) 3,519 11.5 7.5°
